Weather History for Tiree, United Kingdom

Change the Weather History Date:

Saturday, August 17, 2013

  Actual Average Record
Temperature  
Mean Temperature 58 °F -  
Max Temperature 63 °F 59 °F 66 °F (2004)
Min Temperature 53 °F 51 °F 32 °F (2011)
Degree Days  
Heating Degree Days 7    
Growing Degree Days 8 (Base 50)    
Moisture  
Dew Point 55 °F    
Average Humidity 89    
Maximum Humidity 100    
Minimum Humidity 72    
Precipitation  
Precipitation 0.24 in 0.15 in - ()
Sea Level Pressure  
Sea Level Pressure 29.43 in    
Wind  
Wind Speed 22 mph ()    
Max Wind Speed 32 mph    
Max Gust Speed 44 mph    
Visibility 5.7 miles    
Events Rain    
Averages and records for this station are not official NWS values.
T = Trace of Precipitation, MM = Missing Value Source: Averaged Metar Reports

Daily Weather History Graph

Daily Weather History Graph

Search for Another Location

Airport:

Trip Planner

Search our weather history database for the weather conditions in past years. The results will help you decide how hot, cold, wet, or windy it might be!

Date:

Astronomy

Aug. 17, 2013 Rise Set
Actual Time 6:00 AM BST 9:00 PM BST
Civil Twilight 5:17 AM BST 9:44 PM BST
Nautical Twilight 4:18 AM BST 10:42 PM BST
Astronomical Twilight 2:54 AM BST 12:03 AM BST
Moon 6:24 PM BST (8/17) 1:25 AM BST (8/17)
Length of Visible Light 16h 27m
Length of Day
15h 00m
Waxing Gibbous, 82% of the Moon is Illuminated
Aug 17
Waxing Gibbous
Aug 21
Full
Aug 28
Last Quarter
Sep 5
New
Sep 12
First Quarter

Hourly Weather History & Observations

Time (BST) Temp. Dew Point Humidity Pressure Visibility Wind Dir Wind Speed Gust Speed Precip Events Conditions
12:20 AM 57.2 °F 55.4 °F 94% 29.71 in 6.2 mi Variable 17.3 mph - N/A   Mostly Cloudy
12:50 AM 57 °F 54 °F 88% 29.71 in 9 mi South 18.4 mph - -   Mostly Cloudy
12:50 AM 57.2 °F 55.4 °F 94% 29.71 in 6.2 mi South 18.4 mph - N/A   Mostly Cloudy
1:20 AM 57.2 °F 55.4 °F 94% 29.68 in 6.2 mi South 20.7 mph - N/A   Mostly Cloudy
1:50 AM 57.2 °F 53.6 °F 88% 29.65 in 6.2 mi South 21.9 mph - N/A   Scattered Clouds
2:20 AM 57.2 °F 55.4 °F 94% 29.65 in 6.2 mi Variable 19.6 mph - N/A   Unknown
2:50 AM 57.2 °F 55.4 °F 94% 29.62 in 6.2 mi South 18.4 mph - N/A   Unknown
3:20 AM 57.2 °F 55.4 °F 94% 29.59 in 6.2 mi Variable 20.7 mph - N/A   Unknown
3:50 AM 58 °F 55 °F 86% 29.60 in 9 mi South 21.9 mph - -   Scattered Clouds
3:50 AM 57.2 °F 55.4 °F 94% 29.59 in 6.2 mi South 21.9 mph - N/A   Partly Cloudy
4:20 AM 57.2 °F 55.4 °F 94% 29.56 in 6.2 mi South 23.0 mph - N/A   Overcast
4:50 AM 57.2 °F 55.4 °F 94% 29.53 in 6.2 mi South 26.5 mph - N/A   Mostly Cloudy
5:20 AM 55.4 °F 55.4 °F 100% 29.50 in 3.7 mi South 26.5 mph - N/A Rain Light Rain Showers
5:50 AM 57.2 °F 55.4 °F 94% 29.47 in - South 28.8 mph 40.3 mph N/A   Scattered Clouds
6:20 AM 57.2 °F 55.4 °F 94% 29.44 in 3.7 mi South 29.9 mph - N/A   Mostly Cloudy
6:50 AM 57 °F 56 °F 93% 29.44 in 3 mi South 29.9 mph - - Rain Light Drizzle
6:50 AM 57.2 °F 55.4 °F 94% 29.42 in - South 29.9 mph - N/A   Light Drizzle
7:20 AM 57.2 °F 55.4 °F 94% 29.42 in - South 31.1 mph - N/A   Overcast
7:50 AM 57.2 °F 55.4 °F 94% 29.39 in 1.7 mi South 29.9 mph - N/A   Mostly Cloudy
8:20 AM 57.2 °F 55.4 °F 94% 29.39 in 1.1 mi South 29.9 mph 41.4 mph N/A Rain Rain Showers
8:50 AM 57.2 °F 57.2 °F 100% 29.36 in 1.8 mi South 28.8 mph - N/A   Mostly Cloudy
9:20 AM 57.2 °F 57.2 °F 100% 29.36 in - Variable 28.8 mph - N/A   Mostly Cloudy
9:50 AM 58 °F 58 °F 99% 29.36 in 1 mi SSW 24.2 mph - - Rain Rain Showers
9:50 AM 59.0 °F 57.2 °F 94% 29.36 in 1.4 mi Variable 24.2 mph - N/A Rain Rain Showers
10:20 AM 59.0 °F 59.0 °F 100% 29.33 in 5.0 mi Variable 21.9 mph - N/A   Mostly Cloudy
10:50 AM 60.8 °F 59.0 °F 94% 29.33 in 6.2 mi SW 25.3 mph - N/A   Partly Cloudy
11:20 AM 59.0 °F 53.6 °F 82% 29.33 in 6.2 mi WSW 32.2 mph 43.7 mph N/A   Mostly Cloudy
11:50 AM 62.6 °F 57.2 °F 82% 29.33 in 6.2 mi SW 26.5 mph - N/A   Mostly Cloudy
12:20 PM 62.6 °F 57.2 °F 82% 29.33 in 6.2 mi SW 25.3 mph - N/A   Mostly Cloudy
12:50 PM 62 °F 57 °F 77% 29.34 in 7 mi SW 24.2 mph - -   Scattered Clouds
12:50 PM 60.8 °F 57.2 °F 88% 29.33 in 5.0 mi SW 24.2 mph - N/A   Light Drizzle
1:20 PM 57.2 °F 57.2 °F 100% 29.33 in 1.2 mi SW 25.3 mph 40.3 mph N/A Rain Rain Showers
1:50 PM 59.0 °F 55.4 °F 88% 29.33 in 6.2 mi SW 25.3 mph 36.8 mph N/A   Mostly Cloudy
2:20 PM 62.6 °F 55.4 °F 77% 29.33 in 6.2 mi WSW 26.5 mph - N/A   Partly Cloudy
2:50 PM 60.8 °F 55.4 °F 82% 29.33 in 6.2 mi WSW 27.6 mph 39.1 mph N/A   Scattered Clouds
3:20 PM 60.8 °F 55.4 °F 82% 29.33 in 6.2 mi WSW 28.8 mph - N/A   Mostly Cloudy
3:50 PM 60 °F 55 °F 77% 29.33 in 7 mi WSW 28.8 mph - -   Mostly Cloudy
3:50 PM 60.8 °F 55.4 °F 82% 29.33 in 6.2 mi WSW 28.8 mph 40.3 mph N/A   Mostly Cloudy
4:20 PM 60.8 °F 55.4 °F 82% 29.33 in 6.2 mi WSW 28.8 mph 40.3 mph N/A   Mostly Cloudy
4:50 PM 59.0 °F 55.4 °F 88% 29.33 in - WSW 24.2 mph - N/A Rain Rain
5:20 PM 59.0 °F 55.4 °F 88% 29.33 in 6.2 mi WSW 24.2 mph - N/A   Scattered Clouds
5:50 PM 59.0 °F 55.4 °F 88% 29.33 in 6.2 mi WSW 25.3 mph - N/A   Partly Cloudy
6:20 PM 59.0 °F 55.4 °F 88% 29.36 in 6.2 mi WSW 21.9 mph - N/A   Partly Cloudy
6:50 PM 57 °F 54 °F 84% 29.37 in 9 mi West 19.6 mph - - Rain Rain
6:50 PM 57.2 °F 53.6 °F 88% 29.36 in 6.2 mi West 19.6 mph - N/A   Partly Cloudy
7:20 PM 55.4 °F 53.6 °F 94% 29.36 in 6.2 mi West 18.4 mph - N/A   Mostly Cloudy
7:50 PM 55.4 °F 51.8 °F 88% 29.39 in 6.2 mi West 23.0 mph - N/A   Partly Cloudy
8:20 PM 57.2 °F 51.8 °F 82% 29.39 in 6.2 mi West 20.7 mph - N/A   Mostly Cloudy
8:50 PM 55.4 °F 50.0 °F 82% 29.39 in 6.2 mi West 23.0 mph 34.5 mph N/A   Unknown
9:20 PM 55.4 °F 51.8 °F 88% 29.39 in 6.2 mi West 18.4 mph - N/A   Partly Cloudy
9:50 PM 56 °F 49 °F 72% 29.41 in 11 mi West 20.7 mph - -   Scattered Clouds
9:50 PM 55.4 °F 50.0 °F 82% 29.39 in 6.2 mi West 20.7 mph - N/A   Partly Cloudy
10:20 PM 53.6 °F 50.0 °F 88% 29.39 in 6.2 mi WSW 19.6 mph - N/A   Mostly Cloudy
10:50 PM 55.4 °F 50.0 °F 82% 29.39 in 6.2 mi West 20.7 mph 32.2 mph N/A   Unknown
11:20 PM 55.4 °F 50.0 °F 82% 29.39 in 6.2 mi West 20.7 mph - N/A   Partly Cloudy
11:50 PM 55.4 °F 48.2 °F 77% 29.39 in 6.2 mi West 24.2 mph - N/A   Unknown